Regional Weather Roundup
Issued by NWS State College, PA

Home | Current Version | Previous Version | Graphics & Text | Print | Product List | Glossary On
Versions: 1 2 3 4 5 6 7 8 9 10 11 12 13 14 15 16 17 18 19 20 21 22 23 24 25 26 27 28 29 30 31 32 33 34 35 36 37 38 39 40 41 42 43 44 45 46 47 48 49 50
657
ASUS41 KCTP 120010
RWRCTP

REGIONAL WEATHER ROUNDUP
NATIONAL WEATHER SERVICE STATE COLLEGE PA
700 PM EST MON DEC 11 2017

Note: "fair" indicates few or no clouds below 12,000 feet with no
significant weather and/or obstructions to visibility.

* = STATION THAT DOES NOT REPORT PRECIPITATION /E.G. RAIN...SNOW...ETC/
    THUNDER OR FOG.

PAZ002>004-007>009-013>016-020>023-029>032-120100-
WESTERN PENNSYLVANIA

CITY           SKY/WX    TMP DP  RH WIND       PRES   REMARKS
ERIE           CLOUDY    29  22  75 SE6       29.81F
MEADVILLE      LGT SNOW  27  25  92 VRB5      29.78F FOG
FRANKLIN*      FLURRIES  28  23  81 S5        29.79F
NEW CASTLE     CLOUDY    32  24  72 S3        29.80F
BEAVER COUNTY  CLOUDY    32  23  69 CALM      29.80F
BUTLER*        PTCLDY    32  23  69 E5        29.80F
PITTSBURGH INT CLOUDY    36  22  56 E5        29.79F
PITTSBURGH     PTCLDY    35  19  52 SE5       29.79F
INDIANA*       CLOUDY    34  25  69 E6        29.85F
LATROBE        MOCLDY    34  23  64 CALM      29.83F
WASHINGTON CO* PTCLDY    32  23  69 CALM      29.82F
$$

PAZ004>006-010>012-017>019-024>028-033>037-041-042-045-046-049>053-120100-
CENTRAL PENNSYLVANIA

CITY           SKY/WX    TMP DP  RH WIND       PRES   REMARKS
BRADFORD       CLOUDY    26  20  77 S5        29.78F
DUBOIS         CLOUDY    30  19  63 CALM      29.80F
CLEARFIELD     CLOUDY    32  21  64 CALM      29.83F
JOHNSTOWN      CLOUDY    33  21  61 SE6       29.79F
ALTOONA        CLOUDY    38  22  52 S5        29.85F
STATE COLLEGE  CLOUDY    34  21  60 CALM      29.87F
WILLIAMSPORT   CLOUDY    36  22  56 E9        29.91F
SELINSGROVE    CLOUDY    35  24  64 CALM      29.93F
FT INDIANTOWN  CLOUDY    34  25  69 NE3       29.94S
CAPITAL CITY   CLOUDY    38  22  52 SE6       29.94S
HARRISBURG     CLOUDY    35  26  69 SE6       29.94S
YORK           CLOUDY    37  25  61 SE5       29.94S
$$

PAZ038>040-043-044-047-048-054-055-060>062-067>071-120100-
EASTERN PENNSYLVANIA

CITY           SKY/WX    TMP DP  RH WIND       PRES   REMARKS
SCRANTON       CLOUDY    33  20  58 SE3       29.92F
MOUNT POCONO   CLOUDY    27  19  72 SE3       29.90R
ALLENTOWN      CLOUDY    37  21  52 SE3       29.98R
QUAKERTOWN*    CLOUDY    32  23  69 CALM      29.99R
READING        CLOUDY    37  24  59 SE7       29.96S
LANCASTER      CLOUDY    34  28  79 SE5       29.96R
COATESVILLE    PTCLDY    36  23  60 SE5       29.97F
POTTSTOWN      CLOUDY    33  23  66 E3        29.98F
BLUE BELL      MOCLDY    28  27  93 CALM      30.01S
DOYLESTOWN     CLOUDY    31  21  66 CALM      29.98S
WILLOW GROVE   NOT AVBL
NORTH PHILA    MOCLDY    35  23  61 CALM      30.02F
PHILADELPHIA   MOCLDY    38  24  57 SE5       30.00F
$$




USA.gov is the U.S. government's official web portal to all federal, state and local government web resources and services.